Weather Roundup
Issued by NWS

Home | Current Version | Previous Version | Graphics & Text | Print | Product List | Glossary Off
Versions: 1 2 3 4 5 6 7 8 9 10 11 12 13 14 15 16 17 18 19 20 21 22 23 24 25 26 27 28 29 30 31 32 33 34 35 36 37 38 39 40 41 42 43 44 45 46 47 48 49 50

000
NZUS93 KARX 190359
HRRWXR

CURRENT HOURLY OBSERVATIONS ACROSS
MUCH OF THE UPPER MISSISSIPPI VALLEY
NATIONAL WEATHER SERVICE LA CROSSE WI
1100 PM CDT FRI AUG 18 2017


...SOUTHEAST MINNESOTA...


CITY           SKY/WX    TMP DP  RH WIND       PRES   REMARKS
ROCHESTER      FAIR      61  57  87 CALM      29.96R
ROCHESTER/MAYO FAIR      63  61  94 CALM      29.95R
WINONA         FAIR      61  59  94 CALM      29.93F
AUSTIN         FAIR      59  57  94 CALM      29.94S
ALBERT LEA     FAIR      66  64  94 CALM      29.94F
DODGE CENTER   FAIR      57  55  94 CALM      29.95R
PRESTON        FAIR      60  54  82 CALM      29.95S
OWATONNA       FAIR      61  59  94 CALM      29.94S
FARIBAULT      FAIR      61  59  94 CALM      29.93F
$$

...ELSEWHERE IN MINNESOTA...


CITY           SKY/WX    TMP DP  RH WIND       PRES   REMARKS
MINNEAPOLIS    MOCLDY    67  60  78 S3        29.92S
INTNL FALLS    FAIR      59  56  89 SW3       29.83R
DULUTH         FAIR      60  59  96 W7        29.88R
RED WING       FAIR      61  59  94 CALM      29.92S
REDWOOD FALLS  FAIR      59  57  93 W5        29.92S
MANKATO        FAIR      62  59  90 SW5       29.94R
WORTHINGTON    FAIR      59  58  96 NE6       29.95R
FAIRMONT       LGT RAIN  60  59  96 N7        29.95R
$$

...SOUTHWEST WISCONSIN...


CITY           SKY/WX    TMP DP  RH WIND       PRES   REMARKS
LA CROSSE      FAIR      64  62  93 CALM      29.93R
PRAIRIE DU CHI FAIR      60  58  93 CALM      29.93R
BOSCOBEL       FAIR      61  59  93 CALM      29.93S FOG
LONE ROCK      FAIR      63  62  97 CALM      29.92R
PLATTEVILLE    FAIR      63  62  99 W3        29.94R
FORT MC COY    FAIR      56  56 100 CALM      29.94R
MAUSTON-NEW LI FAIR      62  60  94 W5        29.92R
VIROQUA        MOCLDY    58  58 100 NW5       29.95R VSB 1/2
WIS DELLS      CLOUDY    64  60  85 CALM      29.91S
$$

...ELSEWHERE IN WISCONSIN...


CITY           SKY/WX    TMP DP  RH WIND       PRES   REMARKS
MILWAUKEE      MOCLDY    70  60  70 NW6       29.88R
MADISON        MOCLDY    65  61  87 VRB3      29.90S
GREEN BAY      FAIR      64  63  96 NW3       29.88R
EAU CLAIRE     NOT AVBL
BLACK RVR FLS    N/A     58  58 100 CALM      29.92R FOG
MEDFORD        MOCLDY    61  61  98 W3        29.91S FOG
WAUSAU         FAIR      62  60  93 NW8       29.89R
WIS RAPIDS     CLOUDY    65  64  97 NW6       29.92R
MARSHFIELD     FAIR      63  61  93 NW8       29.91S
RICE LAKE      FOG       61  60  97 CALM      29.92S VSB 1/4
$$

...NORTHEAST IOWA...


CITY           SKY/WX    TMP DP  RH WIND       PRES   REMARKS
WATERLOO       FAIR      59  58  96 CALM      29.92R
DUBUQUE        FAIR      62  58  86 N6        29.94R
DECORAH        FAIR      59  59 100 CALM      29.93S
MASON CITY     FAIR      60  58  92 CALM      29.95S
CHARLES CITY   MOCLDY    61  61 100 NE5       29.95R
OELWEIN        FAIR      59  59 100 E5        29.94S
$$

...ELSEWHERE IN IOWA...


CITY           SKY/WX    TMP DP  RH WIND       PRES   REMARKS
DES MOINES     MOCLDY    74  66  76 E7        29.91R
IOWA CITY      FAIR      69  61  75 NE5       29.93R
FORT DODGE     MOCLDY    66  63  88 E10       29.92S
MARSHALLTOWN   FAIR      64  62  93 E5        29.92R
CEDAR RAPIDS   FAIR      65  60  84 NE7       29.91F
$$

...NORTHERN ILLINOIS...


CITY           SKY/WX    TMP DP  RH WIND       PRES   REMARKS
CHICAGO-OHARE  MOCLDY    73  60  63 NW8       29.89R
CHICAGO-MIDWAY MOCLDY    75  61  61 NW6       29.87F
MOLINE         FAIR      72  60  66 N3        29.91R
ROCKFORD       MOCLDY    65  60  84 N5        29.92R
PEORIA         FAIR      69  65  86 SW3       29.90F
$$

NOTE: "FAIR" INDICATES FEW OR NO CLOUDS BELOW 12,000 FEET WITH NO
SIGNIFICANT WEATHER AND/OR OBSTRUCTIONS TO VISIBILITY. WIND
SPEEDS ARE IN MILES-PER-HOUR.




USA.gov is the U.S. government's official web portal to all federal, state and local government web resources and services.